ECMWFFLT2_500_spd_000.txt.gz
Wind_Speed
33 34 34 35 35 35 36 37 37 37 37 38 38 37 37 37 37 37 37 37 37 37 37 37 37 36 36 36 37 37 37 37 37 37 38 38 39 39 40 41 41 41 42 42 43 44 44 45 45 45 46 46
36 36 37 37 37 37 38 39 40 40 40 40 40 40 40 40 40 40 40 40 40 40 40 40 40 40 40 40 40 40 40 40 40 40 40 41 41 42 42 43 43 43 44 44 45 45 46 47 47 48 48 48
39 39 39 39 39 40 40 41 42 42 43 43 43 43 43 43 42 42 43 43 43 43 43 43 43 43 43 43 43 43 43 43 43 43 43 44 44 45 46 46 46 46 46 46 47 47 48 49 49 50 51 51
42 42 42 42 42 42 43 43 44 44 45 45 45 45 45 45 45 45 45 45 46 46 46 46 46 46 46 46 46 46 46 47 47 47 47 47 47 48 49 49 49 49 49 49 49 50 51 51 52 52 53 53
44 44 44 44 44 45 45 45 46 47 47 47 47 48 48 47 47 47 47 48 48 48 48 48 48 49 49 49 49 50 50 50 50 50 50 50 51 52 52 52 52 53 52 52 52 53 53 54 54 55 55 56
47 47 47 47 47 47 47 48 48 49 49 49 50 50 50 50 50 50 50 50 50 50 50 51 51 51 51 52 52 53 53 53 53 53 53 54 54 55 55 55 55 56 56 56 56 56 56 56 57 57 57 58
50 50 50 50 50 50 50 50 50 51 51 52 52 52 52 52 52 52 52 52 52 52 53 53 53 53 54 54 54 55 55 55 56 56 56 57 57 57 58 58 58 58 58 58 58 58 58 58 59 59 59 59
53 53 52 52 53 53 52 53 53 53 53 54 54 55 55 55 55 55 55 55 55 55 55 56 56 56 56 56 57 57 57 58 58 58 59 59 60 60 60 60 60 60 60 60 60 60 60 60 60 60 60 60
55 55 55 55 55 55 55 55 55 55 56 56 56 57 57 57 57 57 57 58 58 58 58 58 59 59 59 59 59 59 59 59 60 60 61 61 62 62 62 62 62 62 62 61 61 61 61 61 61 61 61 61
56 56 57 57 57 58 58 58 57 57 58 58 58 58 59 59 59 59 59 59 60 60 60 60 61 61 61 61 61 61 61 61 61 62 62 63 63 63 63 63 63 63 62 62 62 61 61 61 60 61 61 61
57 57 57 58 58 59 59 59 59 59 59 59 59 60 60 61 61 61 61 61 61 61 61 62 62 62 62 63 63 63 63 63 63 63 63 63 63 63 63 63 63 63 62 62 62 61 60 60 60 60 60 60
57 57 57 57 57 58 59 59 59 60 60 60 60 60 61 61 62 62 62 62 62 62 62 62 62 62 63 63 63 63 63 63 63 63 63 63 62 62 62 62 62 62 62 61 61 61 60 59 59 59 59 60
56 56 55 56 56 57 58 58 59 59 59 60 60 61 61 62 62 62 62 62 62 62 62 62 62 62 63 63 63 63 64 63 63 63 63 63 62 62 61 61 61 61 61 60 60 60 59 59 58 58 58 59
55 54 54 54 56 57 57 57 58 58 59 60 60 60 61 61 61 62 62 61 61 61 61 62 62 62 62 62 62 63 63 63 63 63 62 62 62 61 61 61 60 60 60 60 59 59 59 58 57 57 57 57
53 52 53 54 55 56 56 57 57 58 59 59 60 60 60 60 60 60 60 60 60 60 60 60 60 60 60 60 61 61 61 61 61 61 61 61 60 60 60 59 59 59 59 59 59 58 58 58 57 56 56 57
50 51 52 53 53 53 54 55 57 58 58 58 58 58 58 58 58 59 59 59 59 59 59 58 58 58 58 59 59 59 59 58 58 59 59 59 58 58 58 58 58 58 57 57 57 57 57 56 56 56 56 56
48 48 48 50 50 51 52 54 55 56 56 55 55 56 56 57 57 57 57 57 57 57 57 56 56 56 56 57 57 57 56 56 56 56 56 56 56 56 56 56 56 55 55 55 55 55 55 55 55 54 55 55
45 45 45 47 48 50 52 53 53 53 53 53 53 54 55 56 56 56 56 56 56 56 56 55 55 55 55 56 56 55 55 55 54 54 54 54 54 53 53 53 53 53 53 53 53 53 53 53 54 54 54 54
44 45 46 47 48 49 50 51 51 51 51 52 52 53 53 54 54 55 55 55 56 56 55 55 55 55 55 56 56 55 54 54 54 53 53 52 51 51 51 52 52 51 52 52 52 52 53 53 53 53 54 54
48 49 49 49 49 49 49 50 50 50 51 51 52 52 52 52 53 54 54 54 55 55 54 54 54 54 55 55 55 54 53 53 53 53 52 51 50 50 51 51 51 51 52 52 52 53 53 54 54 54 54 54
50 50 49 49 49 49 49 49 50 50 51 51 50 50 50 50 51 51 52 52 52 52 51 52 52 53 53 54 53 53 52 52 52 51 50 50 50 50 51 51 52 52 52 52 53 53 54 54 54 54 55 54
48 48 48 48 48 49 49 49 49 49 49 48 47 46 47 47 48 48 49 49 49 48 48 49 49 49 50 51 51 51 50 50 50 50 49 49 50 50 51 51 52 53 53 54 54 55 56 56 56 56 56 56
45 46 46 46 47 47 47 47 47 46 45 45 45 45 45 46 46 47 47 47 47 47 47 47 47 48 48 49 49 48 48 48 49 50 50 50 50 50 51 52 53 53 54 54 55 56 57 58 58 58 58 58
44 45 46 46 46 46 46 47 46 45 44 45 45 45 46 47 47 48 49 49 49 48 48 48 48 48 49 49 48 47 47 47 49 50 50 51 51 51 52 53 53 54 54 55 55 57 58 59 59 59 59 59
50 50 49 48 48 48 48 48 47 46 47 47 47 48 48 48 49 50 51 51 51 50 50 49 49 50 51 51 50 49 48 48 49 50 50 51 52 52 52 52 53 54 54 54 55 56 57 58 59 59 60 60
56 56 54 53 52 52 51 51 50 49 49 50 50 50 50 50 51 52 52 52 52 52 50 49 50 51 52 53 52 52 51 51 51 51 52 52 53 54 53 53 53 53 54 54 54 56 56 58 59 59 59 60
60 60 59 58 57 56 55 54 54 53 52 52 53 53 52 52 53 53 53 53 52 51 50 49 49 50 52 52 52 52 53 53 53 53 53 54 54 55 54 54 54 54 54 53 54 55 55 57 59 59 60 60
63 62 61 61 59 59 58 57 56 56 55 56 56 55 55 55 55 55 54 54 53 52 50 50 49 50 51 51 50 51 52 53 54 54 54 55 55 55 55 55 55 55 54 54 55 55 54 56 58 60 61 62
64 64 63 63 62 61 60 59 59 59 59 59 59 59 58 58 58 57 57 56 55 53 52 52 51 51 51 50 50 50 50 51 52 53 54 54 54 55 55 55 55 55 55 56 56 55 54 56 58 59 61 62
62 63 63 63 62 61 60 59 59 60 60 60 61 61 60 60 60 60 59 59 57 56 55 55 54 53 52 52 51 50 50 50 51 52 53 54 54 54 55 56 55 55 56 55 55 55 56 57 58 58 59 59
61 61 62 62 61 60 60 60 60 61 62 61 61 61 61 61 61 61 61 61 60 59 58 58 57 55 55 54 53 51 50 49 50 51 52 53 53 54 55 56 55 55 56 56 56 57 58 57 56 56 57 56

ECMWFFLT2_500_spd_003.txt.gz
Wind_Speed
38 38 38 38 38 38 38 39 39 39 39 40 40 41 41 41 41 41 41 41 41 41 41 41 41 41 41 41 40 40 40 39 39 39 39 39 39 39 39 39 38 38 38 38 38 38 38 38 39 39 39 40
40 40 40 40 41 41 41 41 41 41 41 42 42 43 43 44 44 44 44 44 44 44 44 44 44 44 44 44 44 43 43 43 42 42 42 42 42 42 42 42 42 41 41 41 41 41 41 41 41 42 42 43
42 42 42 43 43 43 43 43 44 44 44 44 44 45 45 46 46 46 47 47 47 47 47 47 47 47 47 47 46 46 46 46 46 45 45 46 46 46 46 45 45 45 45 44 44 45 44 44 45 45 45 46
45 45 45 45 45 45 45 45 46 46 46 46 47 47 47 48 48 49 49 49 49 49 49 49 50 50 50 49 49 49 49 49 49 49 48 49 49 50 49 49 49 48 48 48 48 48 48 48 48 48 48 49
47 48 48 48 48 48 48 48 48 48 48 49 49 49 49 50 50 51 51 51 51 51 51 52 52 52 52 52 52 52 52 52 51 51 51 52 52 53 53 52 52 52 52 51 51 51 51 51 51 51 52 52
50 50 50 50 50 50 50 50 50 51 51 51 51 51 51 52 52 53 53 53 54 54 54 54 54 55 55 55 54 54 54 54 54 54 54 54 55 55 55 55 55 55 55 54 54 54 54 54 54 55 55 55
52 51 52 52 52 52 52 52 53 53 53 53 53 53 54 54 55 55 55 56 56 56 56 56 57 57 57 57 56 56 56 56 56 56 56 56 57 57 57 57 57 57 57 57 57 57 57 57 57 58 58 59
52 52 53 54 54 54 54 54 55 55 56 56 56 56 56 57 57 57 58 58 58 58 58 58 59 59 58 58 58 58 58 58 58 58 58 58 58 59 59 60 60 60 60 60 60 60 60 60 60 60 61 61
54 54 55 55 55 55 55 56 56 56 57 57 57 58 58 59 59 59 60 60 60 60 60 60 60 60 61 61 61 61 60 60 60 60 59 60 60 60 60 61 61 61 61 62 62 62 62 62 62 62 62 63
56 55 55 56 56 56 56 56 56 57 58 58 59 59 59 60 60 61 61 62 62 62 62 62 62 62 62 63 63 63 63 62 62 62 61 61 61 61 61 61 62 62 62 62 63 63 63 63 63 63 63 64
56 56 57 57 57 57 57 57 57 58 59 59 60 60 60 61 62 62 63 63 63 63 63 63 63 64 64 64 64 64 64 64 64 64 63 63 63 63 62 62 62 62 62 62 63 63 63 63 63 63 64 64
57 57 58 59 58 57 56 57 57 59 60 60 60 61 62 62 63 63 64 64 64 64 64 64 64 64 64 64 64 64 64 65 65 65 64 64 64 63 63 63 63 63 63 63 63 63 63 63 63 63 63 64
57 57 58 59 58 56 57 58 59 60 60 60 61 62 63 64 64 64 64 64 64 64 64 65 65 65 65 65 65 64 65 65 65 65 64 64 64 64 63 63 63 63 63 63 63 63 63 63 63 63 63 63
57 56 57 57 57 57 58 59 59 60 61 61 62 62 64 65 65 65 65 65 65 65 65 65 65 65 65 65 65 65 65 65 65 64 64 64 64 64 63 63 63 63 63 63 63 63 63 63 63 63 63 63
58 56 56 57 57 58 58 58 59 60 61 61 61 62 64 65 65 65 65 65 64 64 64 65 65 65 65 65 65 65 64 64 64 63 63 63 63 63 63 63 62 62 62 63 63 63 63 63 63 63 63 63
59 58 58 58 57 58 58 59 60 60 60 60 61 63 65 65 65 65 64 63 63 63 63 63 63 63 63 64 64 63 63 62 62 61 61 61 61 61 61 62 62 62 62 62 62 63 63 63 63 62 62 62
62 60 59 58 57 57 58 59 59 58 58 59 61 63 64 64 64 63 63 62 62 62 62 62 61 61 61 61 62 62 61 61 61 60 60 60 60 60 60 60 61 61 61 61 61 61 62 62 61 61 61 61
63 62 61 60 60 60 59 58 58 57 58 59 60 62 62 63 62 62 62 62 61 61 61 60 60 59 59 60 60 60 60 60 60 60 60 60 60 59 59 59 59 59 60 60 60 60 60 60 59 59 59 59
60 62 63 64 64 63 62 60 59 58 58 59 60 61 61 61 62 62 62 62 61 61 60 60 59 58 59 59 60 60 60 60 60 59 59 59 59 59 58 58 58 58 59 59 59 59 58 58 58 58 58 58
56 58 60 62 64 64 64 63 62 61 60 60 60 61 61 61 62 63 63 62 62 61 61 60 59 58 58 59 59 59 59 59 58 58 58 58 58 58 57 57 57 57 58 58 57 57 57 57 57 57 57 57
55 56 57 59 60 61 62 62 63 62 62 63 63 63 63 63 64 64 64 64 63 62 61 60 59 58 58 58 58 58 58 57 57 56 56 55 55 55 55 55 55 55 56 55 54 54 55 55 56 56 56 56
56 56 56 56 57 58 58 59 60 61 62 62 63 64 64 64 65 65 65 64 63 61 60 58 57 56 56 56 56 56 55 54 53 53 52 52 52 52 53 53 53 53 52 51 51 52 52 53 53 55 55 56
59 58 57 57 57 57 57 57 56 57 59 60 61 62 63 63 63 63 62 62 60 58 57 55 53 52 52 52 52 51 50 49 48 48 48 48 49 50 50 49 49 48 49 49 50 51 51 51 52 53 54 55
61 60 59 59 59 59 58 56 55 56 59 60 61 61 61 60 60 60 59 58 57 56 55 53 52 51 50 50 50 49 47 46 46 47 47 47 48 48 48 47 47 47 47 47 48 49 50 50 51 52 53 54
58 59 59 59 59 59 59 58 57 58 61 62 62 61 61 60 60 59 59 58 57 56 55 54 53 52 51 51 51 50 48 48 48 48 47 48 48 49 49 49 49 49 49 48 47 49 50 50 51 52 52 53
56 58 58 56 56 58 58 58 59 61 64 65 64 63 63 63 62 61 60 59 58 57 57 56 55 54 53 52 52 52 51 51 51 50 49 49 49 49 50 50 50 50 50 50 50 51 51 51 52 52 52 54
60 61 61 60 61 62 61 61 63 65 66 66 66 66 66 65 64 64 62 61 60 59 59 59 58 58 56 55 54 53 53 53 53 52 51 51 50 50 51 50 50 50 51 51 51 53 53 52 53 53 53 54
64 64 65 66 66 66 65 65 67 68 67 67 67 68 67 66 65 64 62 61 61 61 61 62 61 60 59 58 57 55 55 54 55 55 54 53 53 52 51 51 51 51 51 51 51 53 52 52 54 54 54 55
67 67 68 68 69 68 68 68 68 69 69 68 68 67 66 65 64 63 62 61 60 60 60 61 61 61 60 59 59 58 57 56 56 57 57 56 55 54 52 52 52 52 52 52 52 53 51 51 53 54 55 56
68 69 70 70 70 71 71 70 70 70 70 69 68 66 64 63 63 62 61 60 60 61 62 63 63 63 62 61 60 59 59 58 58 58 58 59 58 56 55 54 54 54 53 53 54 53 52 52 53 54 55 57
70 71 72 72 72 73 73 73 72 71 70 69 68 66 64 63 62 62 62 62 62 63 63 64 64 64 64 63 63 62 61 60 59 59 59 60 60 59 58 57 56 55 55 55 55 55 54 53 53 54 55 56

ECMWFFLT2_500_spd_006.txt.gz
Wind_Speed
42 42 43 43 43 43 43 43 43 43 43 43 43 43 43 43 43 43 43 43 43 43 43 43 43 43 42 43 42 42 42 42 42 42 41 41 40 40 39 38 38 38 38 38 39 39 39 39 39 39 39 39
44 44 45 45 45 45 46 46 46 46 46 45 45 45 45 45 45 45 45 45 45 46 46 46 46 46 46 46 46 46 46 46 45 45 45 45 44 44 43 42 42 41 41 42 42 42 43 43 43 43 42 42
45 46 47 47 48 48 48 48 48 48 48 48 48 47 47 48 48 48 48 48 48 48 48 48 48 48 48 49 49 49 49 49 49 49 48 48 48 47 47 46 46 45 45 45 45 45 46 46 46 46 46 46
46 46 47 48 49 49 50 50 50 50 50 50 50 50 49 50 50 50 50 50 50 50 50 50 51 51 51 51 51 52 52 52 52 52 52 52 51 51 50 50 49 49 49 49 49 49 49 49 49 49 49 49
48 48 48 49 49 50 50 51 51 52 52 52 52 52 52 52 52 52 52 53 53 53 53 53 53 53 53 53 54 54 54 54 55 55 55 55 54 54 54 53 53 53 53 53 53 52 52 52 52 52 52 52
52 51 52 52 51 51 52 52 52 53 53 53 53 54 54 54 54 54 54 55 55 55 56 56 56 56 56 56 56 56 56 57 57 57 57 57 57 57 57 56 56 56 56 56 56 56 55 55 55 55 55 55
54 54 54 54 54 54 54 54 53 53 54 54 55 55 55 56 56 56 56 57 57 58 58 58 58 59 58 58 59 59 59 59 59 59 59 59 59 60 59 59 59 59 59 59 59 58 58 58 58 58 58 58
55 56 56 56 56 56 56 56 55 55 56 56 56 56 56 57 57 58 58 59 59 60 60 61 61 61 61 61 61 61 61 61 61 61 61 61 61 62 62 62 62 61 61 61 60 60 60 60 60 60 60 60
56 57 57 58 58 58 58 58 57 57 58 58 57 57 58 58 59 60 60 60 61 62 62 63 63 63 63 63 63 63 63 62 62 63 63 63 63 63 63 63 63 63 62 62 62 62 62 62 62 62 62 62
58 58 59 59 59 59 59 59 59 59 59 58 58 58 59 60 60 61 61 62 62 63 64 64 65 65 65 64 64 64 64 64 64 64 64 65 65 65 64 64 64 64 64 64 64 63 63 63 63 63 63 63
57 58 59 60 61 61 61 60 60 59 58 58 58 59 60 61 61 62 63 63 64 64 65 65 66 66 66 65 65 65 64 64 65 65 66 66 66 66 65 65 65 65 65 65 65 65 64 64 64 64 64 64
55 56 58 60 61 62 62 62 61 59 59 59 59 61 61 61 62 63 64 64 65 66 66 66 66 67 66 66 65 65 65 66 66 66 66 66 66 66 66 66 66 67 66 66 66 65 65 65 65 64 64 64
54 55 55 57 59 61 63 63 63 62 62 62 62 62 62 62 63 64 65 66 66 66 67 67 67 67 67 67 66 66 66 67 67 67 67 67 67 67 67 67 67 67 67 67 67 66 66 66 65 65 65 65
53 54 54 54 56 58 60 62 64 64 64 64 65 65 64 65 65 66 66 67 67 67 67 68 68 67 67 67 67 67 67 67 68 67 67 67 67 67 67 67 67 67 67 67 67 67 66 66 66 66 65 65
51 51 52 53 54 55 56 59 61 62 63 65 66 66 66 67 67 67 67 67 68 68 68 68 68 68 68 67 68 68 68 67 67 67 67 66 66 66 66 66 66 66 66 66 66 66 66 66 66 66 65 65
49 50 50 51 52 53 54 56 57 58 60 62 64 65 66 67 67 68 68 68 68 69 69 69 69 69 68 68 68 68 68 67 67 66 66 65 65 64 64 64 64 65 65 65 65 65 65 65 65 65 65 66
49 49 49 50 51 52 53 54 55 55 57 59 60 62 64 65 66 67 68 69 69 70 70 70 70 70 69 68 68 68 68 67 67 66 65 65 64 64 63 63 63 64 64 64 64 64 64 64 65 65 65 66
51 51 51 51 52 53 53 54 55 55 56 57 58 59 61 62 63 65 67 69 69 70 71 71 71 70 69 69 68 68 68 67 66 65 65 64 64 64 63 63 63 63 63 62 63 63 63 64 64 65 65 65
54 53 53 53 54 54 55 55 56 56 57 58 58 59 59 59 60 62 64 66 67 69 70 70 70 70 69 68 68 68 67 66 65 65 65 64 64 64 64 64 63 62 62 62 62 62 63 63 64 64 64 65
56 56 56 56 56 57 57 57 57 57 58 59 60 61 60 60 60 61 63 64 65 67 68 67 67 67 67 67 67 67 66 65 65 64 64 64 64 64 64 64 63 63 63 63 63 63 63 63 62 63 63 63
58 58 59 59 59 59 60 60 59 59 59 60 61 62 62 62 62 62 63 63 64 65 66 65 64 63 62 63 64 63 63 63 63 63 63 63 63 63 62 62 62 62 62 62 62 62 62 61 61 61 62 62
60 59 60 61 61 62 62 62 62 61 61 62 63 64 64 64 63 63 64 64 65 65 65 64 63 61 59 60 61 60 59 59 59 60 60 60 60 60 60 60 60 60 60 61 60 60 59 59 59 59 60 60
61 61 61 62 63 64 64 64 64 63 63 63 64 65 66 66 65 65 65 65 66 66 66 65 63 61 59 59 60 58 57 57 57 57 58 58 58 58 57 56 56 57 57 57 57 56 56 56 56 57 57 58
63 63 63 62 62 63 64 65 66 65 64 65 66 67 68 68 67 67 67 67 67 67 67 65 64 63 60 60 60 59 58 57 56 56 56 56 55 55 54 52 52 53 54 54 54 52 52 52 52 53 54 54
65 65 63 62 62 62 63 64 65 65 64 65 66 67 69 69 69 69 68 68 68 68 68 68 66 64 62 61 62 62 61 58 56 55 56 55 54 53 53 52 52 52 54 54 52 52 52 52 51 50 50 49
69 68 66 65 64 64 64 64 64 64 64 65 65 66 67 68 69 70 70 70 70 70 70 70 68 66 64 62 62 62 61 59 57 57 57 57 55 55 55 54 54 54 55 55 54 54 54 53 51 50 49 48
73 71 70 69 67 66 67 67 67 66 66 66 66 67 68 68 69 70 70 70 71 71 72 72 69 67 65 63 63 62 61 61 61 60 60 59 58 57 57 57 55 55 56 56 56 57 56 55 54 52 51 49
75 74 72 71 70 69 69 69 69 69 69 68 68 68 69 69 69 70 71 71 71 71 73 73 68 65 66 66 66 64 63 64 64 64 63 62 61 60 59 58 56 56 56 56 56 57 57 57 56 53 52 51
78 76 74 73 73 72 72 72 72 72 71 71 71 71 71 70 70 71 71 71 70 70 72 73 70 68 69 70 70 67 64 64 65 64 63 63 62 61 60 59 58 57 58 57 56 57 58 58 57 55 54 53
79 79 78 76 75 73 73 74 75 75 74 74 74 74 75 75 74 73 72 70 70 69 71 72 71 72 73 74 73 68 64 63 63 62 61 61 61 61 60 60 59 58 59 59 58 58 59 58 58 58 57 56
80 79 78 77 75 73 74 76 77 78 78 78 78 77 78 79 79 79 78 78 78 77 76 75 75 76 78 78 75 69 64 63 61 60 60 60 61 61 61 62 61 59 59 60 60 60 61 60 60 60 59 59

ECMWFFLT2_500_spd_009.txt.gz
Wind_Speed
43 43 44 44 44 44 45 45 45 45 45 45 45 45 45 45 45 45 45 44 44 44 44 44 43 43 43 43 43 43 42 42 42 42 41 41 40 39 39 38 38 39 39 38 38 37 37 37 37 37 37 37
45 45 46 46 45 45 46 46 46 46 47 47 48 48 48 47 47 47 47 47 47 47 47 46 46 46 46 46 46 46 46 46 46 45 45 44 44 43 42 42 42 42 42 42 42 41 40 40 40 40 40 40
48 48 49 48 48 47 48 48 49 49 49 49 49 50 50 49 49 49 49 49 49 49 49 49 49 49 49 49 49 49 49 49 49 49 49 48 47 47 46 46 46 46 46 46 45 44 44 44 44 43 43 43
50 51 52 52 51 51 50 51 51 51 52 52 51 52 52 52 52 52 51 51 51 51 51 51 52 52 52 52 51 51 51 51 52 51 51 51 51 51 50 49 49 49 49 49 49 48 47 48 48 47 47 47
49 51 52 53 54 54 54 53 54 54 54 54 54 54 54 55 55 54 54 54 54 53 53 54 54 54 54 54 54 54 54 54 54 54 54 54 54 54 53 53 53 52 52 52 52 52 51 51 51 51 51 50
47 48 50 52 53 54 55 55 56 56 57 57 57 57 57 57 57 56 56 56 56 56 56 56 56 56 56 56 56 56 56 56 56 56 56 56 56 56 55 55 55 55 55 55 55 55 55 55 55 55 54 54
46 47 48 49 51 52 54 55 56 57 57 58 58 59 59 59 58 58 58 58 58 58 59 58 58 58 58 58 59 59 59 59 59 59 59 58 58 58 58 57 57 57 57 58 58 57 57 57 57 57 57 57
47 48 49 50 50 51 51 53 54 56 57 58 59 59 60 60 60 60 60 60 60 60 61 61 61 61 61 61 61 61 61 61 61 61 61 61 61 61 60 60 59 59 59 59 59 59 59 59 59 59 59 59
49 50 51 52 52 52 52 52 53 54 55 57 59 60 61 61 61 61 62 62 61 62 62 62 63 63 63 63 63 64 64 64 64 64 64 64 64 63 63 62 61 61 61 61 61 61 60 61 61 61 61 61
49 50 52 53 53 54 54 54 55 54 54 55 57 60 61 62 63 63 63 63 63 63 64 64 64 65 65 65 65 66 66 66 66 66 66 66 66 66 65 65 64 63 63 63 63 63 62 62 62 62 62 62
47 48 50 52 53 54 55 56 56 56 56 56 56 57 58 60 62 64 65 65 64 65 65 65 66 67 67 67 67 67 68 68 68 68 68 68 68 68 67 67 66 66 66 66 65 65 65 65 64 63 63 63
46 47 48 50 51 53 54 55 56 57 57 58 58 58 57 57 59 61 63 64 65 66 66 66 67 68 68 68 68 68 69 69 69 69 69 69 69 69 69 69 68 68 68 68 68 67 67 67 66 65 65 65
47 47 47 48 50 51 52 53 54 56 56 57 59 59 58 58 59 59 60 61 63 65 66 67 68 69 69 70 70 70 70 70 70 70 70 70 70 70 70 70 70 70 69 69 69 68 68 68 67 67 67 66
49 49 49 49 50 51 52 52 53 54 55 56 57 58 58 58 58 59 59 59 60 62 64 66 68 68 70 70 70 71 71 71 71 71 71 71 71 71 70 70 71 71 70 70 70 69 69 69 68 68 68 68
53 52 52 52 52 52 53 53 54 54 54 54 55 57 57 56 57 58 58 58 59 60 61 63 65 66 68 69 69 71 71 71 72 72 72 72 72 71 71 71 71 71 71 71 70 70 69 69 69 69 68 68
57 57 56 55 54 55 55 56 56 56 56 55 55 56 57 56 55 56 56 56 57 58 59 60 61 62 64 65 67 68 70 71 71 72 72 72 71 71 71 71 70 70 71 70 70 70 69 69 69 69 69 68
60 61 61 60 59 58 58 58 58 58 58 58 57 57 58 57 56 56 56 56 56 57 57 58 59 59 60 62 63 64 66 68 68 69 69 69 69 69 70 70 69 69 69 69 69 68 68 68 68 68 67 67
61 63 64 64 63 62 61 61 60 61 61 60 60 60 60 59 58 57 57 57 57 57 57 58 58 57 58 59 60 61 63 64 65 65 65 65 65 66 67 67 67 67 67 67 66 66 66 66 66 66 66 66
61 63 65 67 67 67 65 64 63 63 63 63 63 63 62 62 61 61 60 60 59 59 58 58 58 57 58 59 59 60 61 62 63 62 62 60 60 62 62 63 63 63 64 64 64 63 64 64 64 64 64 64
62 63 65 67 69 70 69 68 67 66 65 65 65 65 65 65 64 64 64 63 62 61 60 59 59 59 59 60 60 60 61 62 61 60 60 58 57 58 59 59 60 60 61 62 62 61 62 62 63 63 63 64
63 64 65 67 69 71 72 72 70 69 67 66 67 67 67 67 67 66 67 66 66 64 63 62 61 61 61 61 61 61 61 62 61 60 59 57 55 56 57 58 58 58 59 61 61 61 61 62 62 63 63 63
64 65 66 68 69 71 72 73 73 72 71 70 69 69 69 69 69 69 68 68 68 68 66 65 64 63 63 62 62 63 63 63 63 62 59 56 55 56 57 57 57 58 59 60 60 60 60 61 62 62 63 63
66 66 67 68 70 71 73 74 75 74 74 73 72 71 71 71 71 71 70 70 70 70 69 68 67 66 66 65 64 64 65 65 65 64 61 58 57 58 58 58 57 57 58 59 59 59 60 60 60 61 61 61
68 68 69 70 71 72 74 75 76 76 75 74 74 73 73 73 73 72 72 72 72 72 72 71 70 69 68 67 66 66 67 67 67 66 64 62 61 60 60 58 57 57 57 58 59 60 60 60 61 61 61 60
73 73 72 72 73 74 75 77 78 78 78 77 75 75 74 74 74 74 74 73 73 74 74 74 73 72 71 69 68 68 68 68 69 69 68 66 64 63 62 60 59 57 57 57 59 60 61 61 62 61 61 60
78 78 77 76 76 77 78 78 79 80 81 81 79 78 76 76 76 75 75 74 74 74 75 75 75 74 73 72 70 70 70 71 71 71 71 69 67 66 64 63 62 59 57 57 58 60 61 62 61 60 60 59
81 81 80 79 79 80 81 81 81 81 82 82 82 81 80 78 77 76 75 74 73 74 75 75 76 76 75 73 72 71 72 72 73 73 72 71 70 70 68 66 64 60 57 57 57 59 60 60 60 60 58 57
85 84 83 82 81 81 83 84 84 84 84 84 84 83 82 81 79 78 77 76 75 74 74 75 76 77 76 75 73 72 73 74 74 74 74 73 73 72 70 68 65 60 57 56 57 58 58 59 60 59 57 57
90 89 87 85 84 83 84 86 87 87 87 87 87 85 84 84 82 81 79 78 77 77 76 76 77 77 77 77 75 72 73 75 76 75 74 74 75 75 73 70 66 61 59 58 60 61 60 60 60 60 59 59
92 92 91 89 88 85 84 87 89 90 90 90 89 89 88 86 85 85 83 81 80 79 79 78 78 78 77 78 78 76 75 77 77 75 76 77 78 78 75 73 69 63 60 60 62 63 63 62 62 61 62 61
91 92 93 93 92 90 87 88 90 92 93 93 91 91 90 89 88 88 86 84 82 81 80 80 79 79 79 80 80 79 78 79 78 77 78 80 81 80 78 76 71 65 62 62 63 64 64 63 63 63 63 63

ECMWFFLT2_500_spd_012.txt.gz
Wind_Speed
43 43 44 44 44 44 45 45 46 45 46 46 47 47 47 47 47 47 46 46 45 45 45 45 45 44 43 43 42 41 40 39 39 38 38 38 37 36 36 35 35 36 36 35 34 34 33 32 32 32 31 31
42 43 44 44 45 45 46 46 46 47 47 47 48 48 49 49 49 49 48 48 48 48 47 47 47 46 46 46 45 44 43 42 42 41 41 41 40 39 39 38 38 39 39 38 37 36 36 35 35 35 34 34
42 43 44 45 45 46 46 47 48 48 48 49 49 50 50 51 51 51 51 51 50 50 50 49 49 49 49 48 48 47 46 46 45 45 44 44 43 43 42 41 42 43 43 42 40 40 39 39 39 38 37 37
42 43 44 45 45 46 47 48 49 49 50 50 50 51 52 52 53 53 53 53 53 52 52 52 52 51 51 51 51 50 50 49 49 48 48 47 47 46 46 45 46 46 46 46 44 43 43 43 42 42 41 41
44 44 44 45 46 46 47 48 49 50 50 50 51 51 52 53 54 55 55 56 56 56 55 54 54 54 54 54 53 53 53 53 52 52 51 51 50 50 49 48 49 50 50 49 48 47 47 47 46 46 45 44
47 46 46 46 47 47 48 48 49 50 50 51 51 51 52 52 53 54 56 57 57 58 58 57 57 57 56 56 56 56 56 55 55 54 54 53 53 53 52 51 51 53 52 52 52 51 51 51 50 50 49 48
51 50 49 48 49 49 49 49 50 50 51 51 51 52 52 52 53 54 55 56 57 58 59 59 59 59 59 59 58 58 58 58 57 57 56 56 55 55 54 54 54 55 54 54 55 55 54 54 54 53 53 52
51 51 51 51 50 50 51 51 51 52 52 53 52 52 52 52 53 54 55 56 57 57 58 59 59 60 61 61 61 60 60 60 60 59 59 58 58 58 57 56 57 57 56 56 56 57 56 56 57 56 56 56
49 50 51 52 52 52 52 52 52 53 53 54 54 54 53 53 53 54 55 56 57 57 58 59 59 60 61 62 62 62 62 62 62 61 61 61 61 60 60 60 60 59 59 59 58 58 58 58 59 58 58 58
48 48 49 50 52 53 53 53 53 53 53 54 55 56 56 55 55 55 55 56 57 57 58 59 59 60 61 62 62 63 63 63 63 64 63 63 63 62 62 62 62 62 62 61 61 61 60 60 61 60 60 60
49 49 49 49 50 52 53 54 54 54 54 54 55 56 57 57 57 57 57 58 58 58 58 59 59 60 61 62 63 63 63 64 64 64 64 65 64 64 64 64 64 64 64 64 64 63 63 63 63 62 62 62
51 51 51 51 51 51 52 53 54 55 55 54 55 55 56 57 57 57 58 59 60 60 59 59 59 59 59 60 62 62 63 64 65 65 65 66 66 65 66 66 66 66 65 65 66 66 65 65 65 65 64 64
54 53 53 53 53 53 54 54 55 56 56 56 56 56 56 57 57 57 58 58 59 61 61 59 60 60 60 60 61 61 61 62 64 64 65 66 66 67 67 67 67 67 67 67 67 67 67 67 66 66 65 65
56 56 56 55 55 55 55 56 56 57 57 58 58 58 58 58 58 58 57 57 57 60 62 61 61 61 61 61 61 61 61 61 62 63 64 64 65 67 67 68 68 68 68 68 67 67 68 67 67 67 66 66
59 59 59 59 58 58 58 57 58 58 59 60 60 60 60 60 60 59 59 59 58 59 61 61 62 63 62 62 62 62 62 61 61 62 63 63 64 65 66 68 68 68 68 68 68 67 67 67 67 67 67 67
62 62 62 62 62 62 61 61 60 60 61 62 62 62 63 63 63 62 61 61 61 60 61 61 60 62 63 63 63 63 63 62 62 63 64 64 64 63 64 65 66 67 67 67 67 67 67 67 67 67 67 66
64 64 64 64 64 65 65 65 64 63 63 63 64 65 65 66 66 66 65 64 63 63 63 63 61 60 62 63 64 64 64 64 64 63 63 64 64 63 63 63 63 64 64 65 65 65 65 65 65 65 65 65
65 66 66 67 66 67 67 67 67 66 65 65 66 67 67 68 68 69 68 67 66 66 66 66 65 62 61 63 63 64 64 65 66 66 64 64 64 63 62 62 62 62 62 62 62 62 62 62 62 62 63 63
66 66 67 68 69 69 69 69 69 69 68 68 67 68 69 69 70 70 71 71 70 70 70 69 69 66 63 63 64 63 64 65 66 67 67 66 65 63 61 61 62 62 61 60 60 60 60 59 60 60 60 61
69 69 69 70 70 71 71 71 71 71 71 70 70 69 70 71 71 72 72 73 73 73 73 72 72 70 66 65 65 64 64 65 65 67 68 68 67 65 62 61 62 62 61 60 59 58 58 58 58 59 60 60
73 72 72 73 73 73 73 74 73 74 73 73 73 72 72 72 73 73 74 75 75 75 74 74 75 74 72 69 67 66 66 65 65 65 66 67 67 66 64 62 62 62 60 59 58 57 56 57 58 59 60 60
76 76 75 75 75 75 76 76 76 76 76 76 76 76 75 74 74 74 75 75 76 76 76 76 76 77 76 74 71 69 68 67 66 66 66 66 66 66 64 63 61 61 60 58 58 58 57 56 58 59 60 61
78 78 78 78 77 77 77 78 79 79 78 78 79 79 78 77 77 77 77 77 77 77 77 76 77 77 78 78 76 73 70 69 68 67 67 66 66 65 64 62 61 61 61 60 60 59 57 57 58 59 60 60
81 81 81 81 81 80 79 79 80 81 81 81 81 81 80 80 79 78 78 78 78 78 78 78 77 77 77 78 79 77 74 72 71 70 69 68 67 66 65 63 62 62 62 62 61 60 59 58 59 59 58 58
85 84 84 84 83 83 83 82 82 82 82 83 84 83 83 82 82 81 79 79 80 80 79 79 78 77 77 77 79 79 78 75 73 72 71 70 69 68 68 66 64 63 64 64 63 61 60 61 61 59 57 56
88 88 88 87 86 86 86 85 85 85 84 85 85 85 85 85 84 84 83 81 80 80 81 80 80 78 77 77 77 79 79 77 76 74 74 73 72 71 70 68 67 66 66 65 64 62 63 64 63 60 58 57
90 90 90 90 90 90 89 88 87 87 86 86 86 86 86 86 86 86 86 85 83 82 81 81 81 80 78 78 78 78 79 79 78 76 75 75 74 73 72 71 70 69 67 66 65 65 66 65 64 63 60 58
93 93 93 93 93 94 93 92 90 89 88 88 89 89 89 89 88 88 87 88 88 86 84 84 84 83 81 80 80 79 79 79 79 78 77 76 75 75 74 73 72 71 68 67 67 67 66 67 68 66 61 58
97 97 96 96 96 96 96 97 95 94 92 91 90 91 92 92 91 91 90 90 90 90 89 88 87 86 85 83 82 82 80 80 81 80 79 78 77 76 75 74 74 73 71 69 68 68 68 69 70 67 63 63
95 96 96 96 96 97 97 97 97 97 97 96 94 93 94 94 94 94 94 93 92 92 92 91 89 88 88 87 85 84 83 82 82 82 81 80 79 78 77 75 75 75 73 71 70 69 69 70 71 69 68 68
86 87 89 90 92 93 94 95 96 96 97 98 98 97 96 96 96 96 96 96 96 95 94 93 93 91 90 90 88 87 86 84 83 83 82 82 82 81 79 78 78 76 74 73 72 70 70 71 73 73 72 71

ECMWFFLT2_500_spd_015.txt.gz
Wind_Speed
50 51 51 51 52 51 51 52 52 52 51 50 50 49 50 49 49 49 50 50 50 50 49 49 48 48 47 47 47 46 45 45 44 43 43 42 41 40 39 38 37 36 37 37 36 34 33 32 32 31 31 30
48 49 49 50 51 51 51 51 51 52 52 52 51 50 50 50 49 49 49 50 50 50 51 50 50 50 49 49 49 48 48 47 46 46 45 44 43 43 41 39 38 37 39 39 37 35 35 34 34 34 33 32
47 47 48 49 49 49 50 50 50 51 52 53 52 52 52 51 50 50 50 50 50 50 51 52 52 51 51 51 51 51 50 49 48 48 47 47 46 45 43 41 40 40 41 41 38 37 36 36 36 35 35 34
49 49 49 49 49 49 49 49 50 50 51 52 53 53 53 53 52 52 52 52 51 51 52 52 53 53 53 53 53 53 52 52 51 51 50 49 49 48 46 44 43 43 44 43 41 39 39 38 38 38 37 36
49 50 50 50 50 50 50 50 50 50 51 51 52 53 53 53 53 53 53 53 53 53 53 53 54 55 55 55 55 55 54 54 54 53 53 52 51 51 49 47 47 47 46 46 45 43 42 42 41 41 40 39
49 50 50 50 51 51 51 51 51 51 52 52 52 53 53 54 54 54 54 54 54 54 55 54 54 55 56 56 56 56 56 56 56 56 55 55 54 54 52 50 51 51 49 49 49 48 46 45 44 44 43 42
50 50 50 50 50 51 51 51 52 52 52 52 53 54 54 54 54 54 54 54 54 55 56 55 55 55 56 57 57 57 57 57 58 58 58 57 56 56 54 53 54 54 53 52 52 52 49 48 48 47 46 46
50 50 51 51 51 51 51 51 52 52 52 52 53 54 55 55 56 56 55 55 55 55 55 56 56 56 56 57 57 57 58 58 59 59 59 59 59 58 57 57 57 57 56 55 55 55 53 51 51 50 49 49
51 51 51 51 51 51 51 51 52 52 52 52 52 52 54 55 56 57 57 57 56 56 56 56 56 57 57 57 58 58 58 58 59 60 60 60 60 60 59 60 60 59 58 57 57 57 56 54 54 53 52 52
52 52 52 52 52 52 52 52 52 52 52 53 52 52 53 54 55 57 57 58 58 57 57 57 56 56 57 58 59 60 59 58 59 60 60 61 61 61 60 61 61 61 60 59 59 59 58 57 57 56 55 55
53 54 54 54 53 54 54 54 54 54 53 53 53 53 54 55 55 56 56 57 57 57 58 58 58 58 58 58 59 61 61 60 60 60 60 61 61 61 61 61 62 62 61 61 60 60 60 60 59 59 58 58
55 56 56 56 56 56 55 55 55 55 55 55 55 54 55 56 56 56 56 57 57 57 57 58 59 59 60 59 59 61 62 61 61 62 62 61 61 61 61 62 62 62 62 62 62 62 62 62 61 61 60 60
58 58 58 59 59 59 58 58 57 57 57 57 56 56 56 57 58 58 58 58 59 58 58 57 58 59 60 61 61 62 63 62 61 62 63 63 63 62 62 61 62 63 63 63 62 62 62 62 63 63 62 61
61 61 61 61 61 62 61 61 60 60 59 59 58 58 59 59 59 60 60 61 61 60 60 59 58 58 59 61 62 63 64 63 62 62 63 64 64 63 63 62 62 63 64 64 64 63 63 63 63 64 63 63
64 64 64 64 64 64 64 64 64 64 63 62 61 61 61 61 61 61 61 62 63 63 63 62 61 59 58 59 61 62 64 65 64 63 63 64 65 65 64 64 63 63 64 64 64 64 63 63 63 64 64 64
66 67 67 67 67 67 67 67 67 67 67 66 66 65 64 64 63 63 63 63 64 64 65 65 64 62 60 59 59 61 63 65 66 65 64 65 65 66 66 66 65 64 64 64 63 63 63 63 62 62 63 64
67 68 69 69 70 70 70 70 70 70 70 70 70 69 69 68 67 66 66 65 65 65 65 66 66 65 64 62 60 61 63 65 66 66 65 65 65 66 66 66 66 65 65 64 64 63 63 62 62 62 62 62
69 69 70 71 71 72 73 73 73 72 72 72 72 72 72 72 71 70 69 69 68 67 67 67 68 67 66 65 64 64 63 64 66 67 67 66 65 66 67 66 66 66 66 65 65 65 63 62 61 61 61 61
70 71 72 72 73 74 75 75 75 75 75 75 74 74 74 74 74 74 73 72 72 71 70 70 69 68 66 64 64 66 66 65 67 68 67 67 66 66 66 66 66 67 67 67 66 65 64 63 61 61 60 60
72 73 74 75 75 75 76 77 77 78 78 78 77 77 76 76 76 76 76 76 75 74 73 73 72 71 68 65 63 64 66 67 68 69 69 68 68 66 66 66 66 66 67 67 67 66 65 64 62 61 59 59
75 75 76 76 77 77 78 78 79 80 80 80 80 80 79 79 78 77 77 78 78 77 77 76 75 74 73 72 70 69 70 71 69 70 71 70 70 69 67 66 66 66 66 67 68 68 66 64 62 61 60 59
80 80 80 79 79 79 79 79 80 81 82 82 83 83 82 81 81 80 80 80 80 80 80 79 78 77 76 76 76 76 76 75 73 72 72 72 72 71 70 69 67 66 65 66 67 68 67 65 64 63 62 62
85 86 85 84 84 82 81 81 81 81 82 84 85 85 86 85 84 83 84 84 83 83 83 82 81 80 80 79 79 79 79 78 78 76 74 73 73 73 73 72 70 68 66 66 66 67 68 68 67 66 65 64
90 91 91 90 90 88 87 85 84 83 84 85 86 87 88 88 87 86 86 86 87 86 85 85 84 83 82 82 81 81 81 80 80 80 78 75 74 75 75 74 73 72 69 68 67 67 68 69 69 69 68 67
94 95 96 96 95 94 93 91 89 87 86 86 87 88 89 90 90 90 89 88 88 89 89 88 87 86 85 85 84 83 83 82 81 81 81 79 77 76 76 77 76 74 73 72 70 69 68 69 69 69 69 68
100 100 100 100 101 100 99 97 95 94 92 90 89 88 89 90 91 91 92 91 91 91 91 91 90 89 88 88 87 86 85 84 83 82 83 83 81 79 78 78 78 77 76 75 73 71 69 69 69 70 70 69
102 102 102 102 103 104 104 102 101 100 99 98 95 92 90 91 92 92 92 93 93 93 92 92 92 92 91 91 90 89 88 87 86 85 84 85 85 83 80 80 80 80 79 77 76 74 73 72 71 71 70 69
97 97 98 98 100 102 104 104 104 104 103 103 102 99 96 93 93 93 93 94 95 95 94 94 94 93 93 94 93 92 90 89 88 87 86 86 87 86 84 82 82 82 81 80 79 78 76 75 74 73 70 68
89 88 88 88 90 93 96 98 101 102 103 103 104 103 102 99 96 95 95 95 95 96 96 96 96 95 95 95 96 96 94 91 89 88 87 86 87 88 88 85 84 83 83 83 82 80 78 77 76 73 69 67
77 76 76 76 77 80 81 84 87 91 95 98 101 102 103 102 100 98 98 98 98 97 97 97 97 98 97 97 97 97 97 95 92 89 87 87 87 88 89 87 86 85 84 84 83 82 80 78 75 73 71 70
67 66 66 65 66 67 67 70 72 76 81 86 91 95 98 100 101 100 99 100 100 100 98 98 98 99 99 99 99 99 99 98 96 92 89 87 87 88 89 89 89 87 85 85 84 83 82 79 76 75 74 73